When you browse on this site, cookies collect data to enhance your experience and personalize the content and advertising you see.
Visit our Privacy Policy to learn more. By continuing to use the site, you agree to this use of cookies and data.
  • In Romania
  • List of Countries
  • For 7 days
  • Water Temperature
  • Satellite Maps
  • Weather Map
  • Weather Widgets
  • user-avatar
    Login

    Hourly Weather Uige

    Today, 22 January, Tuesday

    Time Temperature Precipitation Wind Pressure Humidity
    00:00 +20°C° 0 mm 0 mps 692 mmHg 97%
    01:00 +20°C° 0 mm 0 mps 692 mmHg 97%
    02:00 +20°C° 0.3 mm 0 mps 692 mmHg 97%
    03:00 +20°C° 0.3 mm 0 mps 691 mmHg 97%
    04:00 +20°C° 0.3 mm 0 mps 691 mmHg 97%
    05:00 +20°C° 0.2 mm 0 mps 691 mmHg 97%
    06:00 +20°C° 0.2 mm 0 mps 692 mmHg 96%
    07:00 +20°C° 0.2 mm 0 mps 692 mmHg 96%
    08:00 +24°C° 0.5 mm 1 mps 693 mmHg 91%
    09:00 +25°C° 0.5 mm 1 mps 693 mmHg 86%
    10:00 +27°C° 0.5 mm 1 mps 693 mmHg 80%
    11:00 +27°C° 0.8 mm 1 mps 693 mmHg 80%
    12:00 +28°C° 0.8 mm 2 mps 692 mmHg 80%
    13:00 +28°C° 0.8 mm 2 mps 692 mmHg 80%
    14:00 +28°C° 0.9 mm 2 mps 691 mmHg 83%
    15:00 +27°C° 0.9 mm 2 mps 691 mmHg 86%
    16:00 +26°C° 0.9 mm 2 mps 690 mmHg 89%
    17:00 +25°C° 0.2 mm 2 mps 690 mmHg 92%
    18:00 +24°C° 0.2 mm 1 mps 690 mmHg 95%
    19:00 +23°C° 0.2 mm 1 mps 691 mmHg 98%
    20:00 +23°C° 0.3 mm 1 mps 691 mmHg 98%
    21:00 +22°C° 0.3 mm 1 mps 692 mmHg 98%
    22:00 +22°C° 0.3 mm 1 mps 692 mmHg 99%
    23:00 +22°C° 0 mm 1 mps 692 mmHg 99%

    Tomorrow, 23 January, Wednesday

    Time Temperature Precipitation Wind Pressure Humidity
    00:00 +22°C° 0 mm 1 mps 692 mmHg 99%
    01:00 +21°C° 0 mm 2 mps 692 mmHg 99%
    02:00 +22°C° 0 mm 1 mps 691 mmHg 98%
    03:00 +22°C° 0 mm 1 mps 691 mmHg 98%
    04:00 +22°C° 0 mm 1 mps 691 mmHg 98%
    05:00 +21°C° 0 mm 1 mps 691 mmHg 98%
    06:00 +21°C° 0 mm 1 mps 692 mmHg 98%
    07:00 +21°C° 0 mm 1 mps 692 mmHg 98%
    08:00 +22°C° 0 mm 1 mps 692 mmHg 93%
    09:00 +24°C° 0 mm 1 mps 693 mmHg 88%
    10:00 +25°C° 0 mm 2 mps 693 mmHg 82%
    11:00 +26°C° 0 mm 2 mps 693 mmHg 76%
    12:00 +27°C° 0 mm 2 mps 692 mmHg 69%
    13:00 +28°C° 0 mm 2 mps 692 mmHg 62%
    14:00 +28°C° 0 mm 2 mps 691 mmHg 62%
    15:00 +28°C° 0 mm 2 mps 691 mmHg 63%
    16:00 +28°C° 0 mm 2 mps 690 mmHg 63%
    17:00 +27°C° 0 mm 2 mps 690 mmHg 71%
    18:00 +25°C° 0 mm 1 mps 690 mmHg 78%
    19:00 +23°C° 0 mm 1 mps 690 mmHg 86%
    20:00 +23°C° 0 mm 1 mps 691 mmHg 89%
    21:00 +22°C° 0 mm 1 mps 691 mmHg 92%
    22:00 +20°C° 0 mm 0 mps 692 mmHg 95%
    23:00 +20°C° 0 mm 0 mps 691 mmHg 96%

    Day after tomorrow, 24 January, Thursday

    Time Temperature Precipitation Wind Pressure Humidity
    00:00 +19°C° 0 mm 0 mps 691 mmHg 97%
    01:00 +19°C° 0 mm 0 mps 690 mmHg 97%
    02:00 +19°C° 0 mm 0 mps 690 mmHg 97%
    03:00 +18°C° 0 mm 0 mps 690 mmHg 97%
    04:00 +18°C° 0 mm 0 mps 689 mmHg 97%
    05:00 +18°C° 0 mm 0 mps 690 mmHg 95%
    06:00 +19°C° 0 mm 0 mps 690 mmHg 92%
    07:00 +19°C° 0 mm 0 mps 691 mmHg 89%
    08:00 +24°C° 0 mm 1 mps 691 mmHg 77%
    09:00 +26°C° 0 mm 1 mps 692 mmHg 65%
    10:00 +29°C° 0 mm 1 mps 693 mmHg 53%
    11:00 +30°C° 0 mm 1 mps 692 mmHg 51%
    12:00 +31°C° 0 mm 2 mps 691 mmHg 48%
    13:00 +32°C° 0 mm 2 mps 690 mmHg 46%
    14:00 +31°C° 0.2 mm 2 mps 690 mmHg 51%
    15:00 +31°C° 0.2 mm 2 mps 689 mmHg 55%
    16:00 +30°C° 0.2 mm 2 mps 688 mmHg 59%
    17:00 +28°C° 0.1 mm 2 mps 688 mmHg 67%
    18:00 +26°C° 0.1 mm 1 mps 689 mmHg 75%
    19:00 +24°C° 0.1 mm 1 mps 689 mmHg 82%
    20:00 +23°C° 0 mm 1 mps 689 mmHg 84%
    21:00 +21°C° 0 mm 0 mps 690 mmHg 86%
    22:00 +20°C° 0 mm 0 mps 690 mmHg 88%
    23:00 +20°C° 0 mm 0 mps 690 mmHg 91%

    25 January, Friday

    Time Temperature Precipitation Wind Pressure Humidity
    00:00 +19°C° 0 mm 0 mps 690 mmHg 94%
    01:00 +19°C° 0 mm 0 mps 690 mmHg 98%
    02:00 +19°C° 0 mm 0 mps 690 mmHg 98%
    03:00 +19°C° 0 mm 0 mps 690 mmHg 98%
    04:00 +19°C° 0 mm 0 mps 689 mmHg 99%
    05:00 +19°C° 0 mm 0 mps 690 mmHg 98%
    06:00 +20°C° 0 mm 0 mps 691 mmHg 96%
    07:00 +22°C° 0 mm 1 mps 691 mmHg 95%
    08:00 +23°C° 0 mm 0 mps 692 mmHg 85%
    09:00 +26°C° 0 mm 0 mps 692 mmHg 75%
    10:00 +28°C° 0 mm 0 mps 693 mmHg 65%
    11:00 +31°C° 0 mm 1 mps 692 mmHg 58%
    12:00 +32°C° 0 mm 1 mps 691 mmHg 52%
    13:00 +34°C° 0 mm 2 mps 691 mmHg 46%
    14:00 +32°C° 0 mm 2 mps 690 mmHg 48%
    15:00 +32°C° 0 mm 2 mps 689 mmHg 50%
    16:00 +32°C° 0 mm 2 mps 689 mmHg 52%
    17:00 +29°C° 0.1 mm 2 mps 689 mmHg 62%
    18:00 +27°C° 0.1 mm 1 mps 689 mmHg 72%
    19:00 +25°C° 0.1 mm 1 mps 689 mmHg 82%
    20:00 +24°C° 0.1 mm 1 mps 690 mmHg 84%
    21:00 +23°C° 0.1 mm 1 mps 690 mmHg 86%
    22:00 +23°C° 0.1 mm 1 mps 691 mmHg 88%
    23:00 +22°C° 0.1 mm 1 mps 691 mmHg 92%

    26 January, Saturday

    Time Temperature Precipitation Wind Pressure Humidity
    00:00 +22°C° 0.1 mm 1 mps 691 mmHg 95%
    01:00 +20°C° 0.1 mm 0 mps 690 mmHg 98%
    02:00 +22°C° 0 mm 1 mps 690 mmHg 98%
    03:00 +22°C° 0 mm 1 mps 690 mmHg 98%
    04:00 +23°C° 0 mm 1 mps 690 mmHg 97%
    05:00 +23°C° 0 mm 1 mps 691 mmHg 97%
    06:00 +23°C° 0 mm 1 mps 691 mmHg 97%
    07:00 +23°C° 0 mm 1 mps 691 mmHg 97%
    08:00 +25°C° 0.2 mm 1 mps 692 mmHg 89%
    09:00 +26°C° 0.2 mm 1 mps 692 mmHg 82%
    10:00 +28°C° 0.2 mm 1 mps 693 mmHg 75%
    11:00 +29°C° 0.7 mm 1 mps 692 mmHg 73%
    12:00 +29°C° 0.7 mm 2 mps 692 mmHg 71%
    13:00 +30°C° 0.7 mm 2 mps 691 mmHg 69%
    14:00 +29°C° 1 mm 2 mps 691 mmHg 76%
    15:00 +28°C° 1 mm 2 mps 690 mmHg 82%
    16:00 +27°C° 1 mm 2 mps 690 mmHg 88%
    17:00 +26°C° 0.1 mm 2 mps 690 mmHg 91%
    18:00 +25°C° 0.1 mm 2 mps 690 mmHg 94%
    19:00 +24°C° 0.1 mm 2 mps 691 mmHg 97%
    20:00 +23°C° 1.5 mm 1 mps 691 mmHg 97%
    21:00 +23°C° 1.5 mm 1 mps 692 mmHg 97%
    22:00 +21°C° 1.5 mm 0 mps 692 mmHg 98%
    23:00 +21°C° 1.6 mm 0 mps 692 mmHg 98%

    27 January, Sunday

    Time Temperature Precipitation Wind Pressure Humidity
    00:00 +21°C° 1.6 mm 0 mps 692 mmHg 97%
    01:00 +20°C° 1.6 mm 0 mps 691 mmHg 97%
    02:00 +20°C° 0.3 mm 0 mps 691 mmHg 97%
    03:00 +20°C° 0.3 mm 0 mps 691 mmHg 98%
    04:00 +20°C° 0.3 mm 0 mps 690 mmHg 98%
    05:00 +22°C° 0 mm 1 mps 691 mmHg 98%
    06:00 +22°C° 0 mm 1 mps 691 mmHg 98%
    07:00 +22°C° 0 mm 1 mps 691 mmHg 98%
    08:00 +23°C° 0 mm 1 mps 692 mmHg 96%
    09:00 +23°C° 0 mm 1 mps 692 mmHg 95%
    10:00 +24°C° 0 mm 1 mps 692 mmHg 93%
    11:00 +25°C° 1.2 mm 1 mps 691 mmHg 89%
    12:00 +26°C° 1.2 mm 1 mps 691 mmHg 86%
    13:00 +27°C° 1.2 mm 1 mps 690 mmHg 83%
    14:00 +28°C° 0.6 mm 1 mps 690 mmHg 80%
    15:00 +28°C° 0.6 mm 1 mps 689 mmHg 78%
    16:00 +28°C° 0.6 mm 1 mps 689 mmHg 75%
    17:00 +26°C° 0.3 mm 1 mps 689 mmHg 80%
    18:00 +23°C° 0.3 mm 0 mps 690 mmHg 85%
    19:00 +21°C° 0.3 mm 0 mps 690 mmHg 91%
    20:00 +21°C° 0 mm 0 mps 690 mmHg 91%
    21:00 +20°C° 0 mm 0 mps 691 mmHg 92%
    22:00 +20°C° 0 mm 0 mps 691 mmHg 93%
    23:00 +20°C° 0 mm 0 mps 691 mmHg 94%
    Show more